User: anonymous   Login
Location: West Cummington
(42.4920°N, 72.9680°W)
Time: 14:12:32
(UTC-04:00)
Language:

Cosmos 841 Rocket - Orbit

View from above orbital plane
View from above orbital plane
View from above satellite
View from above satellite

Ground track
Ground track

The orbit data is extracted from the following two-line orbital elements,

1 09023U 76069B   15211.16138160  .00000090  00000-0  37486-4 0  9999
2 09023 074.0443 286.4226 0018758 262.9820 096.9202 14.39403960 45822
Epoch (UTC): 30 July 2015 03:52:23
Eccentricity: 0.0018758
inclination: 74.0443°
perigee height: 747 km
apogee height: 774 km
right ascension of ascending node: 286.4226°
argument of perigee: 262.9820°
revolutions per day: 14.39403960
mean anomaly at epoch: 96.9202°
orbit number at epoch: 4582

The dashed part of the orbit path shows where the satellite is in the earth's shadow,  

DLR